Regional Weather Roundup
Issued by NWS

Home | Current Version | Previous Version | Text Only | Print | Product List | Glossary On
Versions: 1 2 3 4 5 6 7 8 9 10 11 12 13 14 15 16 17 18 19 20 21 22 23 24 25 26 27 28 29 30 31 32 33 34 35 36 37 38 39 40 41 42 43 44 45 46 47 48 49 50
000
ASUS43 KTOP 162208
RWRKS

WEATHER ROUNDUP FOR KANSAS
NATIONAL WEATHER SERVICE GOODLAND KS
400 PM CST FRI FEB 16 2018

NOTE:  "FAIR" INDICATES FEW OR NO CLOUDS BELOW 12,000 FEET WITH NO
SIGNIFICANT WEATHER AND/OR OBSTRUCTIONS TO VISIBILITY.

KSZ001>006-013>018-027>032-041>047-162300-
NORTHWEST KANSAS

CITY           SKY/WX    TMP DP  RH WIND       PRES   REMARKS
GOODLAND       PTSUNNY   41  15  35 S25G33    30.06F
HAYS           CLOUDY    37  13  37 S13       30.24F WCI  29
HILL CITY      CLOUDY    39  15  37 S15G22    30.20F WCI  31
RUSSELL        MOSUNNY   39  13  34 S10       30.24F WCI  32
$$

KSZ061>065-074>080-084>089-162300-
SOUTHWEST KANSAS

CITY           SKY/WX    TMP DP  RH WIND       PRES   REMARKS
DODGE CITY     CLOUDY    38  15  39 S12       30.22F WCI  30
ELKHART        PTSUNNY   41  20  43 S17       30.17F
GARDEN CITY    MOSUNNY   39  15  37 S14G23    30.18F WCI  31
GREAT BEND     MOSUNNY   37  11  34 S9        30.27F
LIBERAL        CLOUDY    37  15  40 S14       30.21F WCI  28
PRATT          CLOUDY    36  10  34 S6        30.28F
$$

KSZ066>073-081>083-090>101-162300-
SOUTHEAST KANSAS

CITY           SKY/WX    TMP DP  RH WIND       PRES   REMARKS
CHANUTE        PTSUNNY   42  15  33 NE6       30.32F
COFFEYVILLE    CLOUDY    43  20  39 NE8       30.32F
HUTCHINSON     CLOUDY    39  11  31 VRB5      30.29F
MEDICINE LODGE   N/A     39  15  37 S6        30.29F
NEWTON         SUNNY     37   9  31 CALM      30.30F
PARSONS        CLOUDY    43  20  39 N5        30.33F
WICHITA INTL   MOSUNNY   41  11  29 NE5       30.30F
WICHITA JABRA  MOSUNNY   39  11  31 CALM      30.30F
WICHITA MCCONL PTSUNNY   40  10  28 E7        30.30F
WINFIELD       CLOUDY    42  12  29 E10       30.32F
$$

KSZ007>012-019>026-033>040-048>060-102>105-162300-
NORTHEAST KANSAS

CITY           SKY/WX    TMP DP  RH WIND       PRES   REMARKS
CONCORDIA      SUNNY     34   6  31 S8        30.28F
EMPORIA        SUNNY     39   9  29 VRB3      30.31F
LAWRENCE       PTSUNNY   38   5  25 S6        30.34F
MANHATTAN      MOSUNNY   38   8  29 SW6       30.32F
MARYSVILLE     SUNNY     36   9  32 S9        30.29F
OLATHE IND     MOSUNNY   36   8  31 CALM      30.33F
OLATHE EXE     MOSUNNY   37   6  27 CALM      30.33F
SALINA         MOSUNNY   37  11  34 VRB5      30.30F
TOPEKA BILLARD MOSUNNY   37   5  26 CALM      30.34F
TOPEKA FORBES  MOSUNNY   38   5  25 W3        30.32F
$$




USA.gov is the U.S. government's official web portal to all federal, state and local government web resources and services.